Voltar ao catálogo

STARLINK-36560

AtivoComunicaçõesSSO
NORAD 67585·PAYLOAD·🇺🇸 United States

Lançado Jan 25, 2026 de Vandenberg Space Force Base

Loading…

Próximas Passagens (próximas 24 horas)

TLE

AtualizadoSource: CelesTrak SupGP

Época: Sep 15, 2026, 04:22 UTC

1 67585C 26016AA  26258.18243056 -.00018851  00000+0 -58516-3 0  2588
2 67585  97.2851 316.8570 0000567  80.4837 191.0811 15.33451073    17

Acompanhe STARLINK-36560 em tempo real com AllMySat

Download on the App Store